TimeCDT,TemperatureF,Dew PointF,Humidity,Sea Level PressureIn,VisibilityMPH,Wind Direction,Wind SpeedMPH,Gust SpeedMPH,PrecipitationIn,Events,Conditions,WindDirDegrees,DateUTC
12:15 AM,44.6,44.6,100,29.89,7.0,NW,15.0,21.9,N/A,,Overcast,320,2013-10-16 05:15:00
12:35 AM,44.6,44.6,100,29.89,3.0,NW,11.5,21.9,N/A,,Light Drizzle,320,2013-10-16 05:35:00
12:55 AM,44.6,44.6,100,29.90,3.0,NW,13.8,20.7,N/A,,Light Drizzle,320,2013-10-16 05:55:00
1:15 AM,44.6,44.6,100,29.90,4.0,NW,11.5,19.6,N/A,,Overcast,320,2013-10-16 06:15:00
1:35 AM,44.6,44.6,100,29.91,4.0,NW,13.8,20.7,N/A,,Overcast,310,2013-10-16 06:35:00
1:55 AM,44.6,44.6,100,29.91,6.0,NW,15.0,-,N/A,,Overcast,320,2013-10-16 06:55:00
2:15 AM,44.6,44.6,100,29.91,6.0,NW,10.4,17.3,N/A,,Overcast,320,2013-10-16 07:15:00
2:35 AM,44.6,44.6,100,29.91,6.0,NW,11.5,-,N/A,,Overcast,320,2013-10-16 07:35:00
2:55 AM,44.6,44.6,100,29.91,10.0,NW,11.5,17.3,N/A,,Overcast,320,2013-10-16 07:55:00
3:15 AM,44.6,44.6,100,29.91,10.0,NW,11.5,18.4,N/A,,Overcast,320,2013-10-16 08:15:00
3:35 AM,44.6,44.6,100,29.91,10.0,NNW,12.7,19.6,N/A,,Overcast,330,2013-10-16 08:35:00
3:55 AM,44.6,44.6,100,29.91,10.0,NNW,11.5,18.4,N/A,,Overcast,330,2013-10-16 08:55:00
4:15 AM,44.6,44.6,100,29.92,10.0,NW,12.7,-,N/A,,Overcast,320,2013-10-16 09:15:00
4:35 AM,44.6,44.6,100,29.92,10.0,NNW,10.4,17.3,N/A,,Overcast,330,2013-10-16 09:35:00
4:55 AM,44.6,44.6,100,29.92,10.0,NNW,15.0,-,N/A,,Overcast,330,2013-10-16 09:55:00
5:15 AM,44.6,44.6,100,29.93,10.0,NNW,10.4,-,N/A,,Overcast,330,2013-10-16 10:15:00
5:35 AM,44.6,44.6,100,29.93,8.0,NW,10.4,-,N/A,,Light Drizzle,320,2013-10-16 10:35:00
5:55 AM,44.6,44.6,100,29.94,7.0,NNW,10.4,16.1,N/A,,Light Drizzle,330,2013-10-16 10:55:00
6:15 AM,44.6,44.6,100,29.94,5.0,NNW,10.4,17.3,N/A,,Light Drizzle,330,2013-10-16 11:15:00
6:35 AM,44.6,44.6,100,29.94,5.0,NNW,10.4,-,N/A,,Light Drizzle,330,2013-10-16 11:35:00
6:55 AM,44.6,42.8,93,29.95,9.0,NW,9.2,15.0,N/A,,Overcast,320,2013-10-16 11:55:00
7:15 AM,44.6,42.8,93,29.95,6.0,NW,10.4,18.4,N/A,,Light Drizzle,320,2013-10-16 12:15:00
7:35 AM,44.6,42.8,93,29.95,7.0,NNW,9.2,-,N/A,Rain,Light Rain,330,2013-10-16 12:35:00
7:55 AM,44.6,42.8,93,29.96,9.0,NW,10.4,-,N/A,,Overcast,320,2013-10-16 12:55:00
8:15 AM,44.6,42.8,93,29.96,9.0,NNW,9.2,-,N/A,,Light Drizzle,330,2013-10-16 13:15:00
8:35 AM,44.6,42.8,93,29.97,10.0,NW,9.2,-,N/A,,Overcast,320,2013-10-16 13:35:00
8:55 AM,44.6,42.8,93,29.97,10.0,NNW,8.1,-,N/A,,Overcast,330,2013-10-16 13:55:00
9:15 AM,44.6,42.8,93,29.97,10.0,NW,10.4,-,N/A,,Overcast,320,2013-10-16 14:15:00
9:35 AM,44.6,42.8,93,29.98,10.0,NW,9.2,-,N/A,,Overcast,320,2013-10-16 14:35:00
9:55 AM,44.6,42.8,93,29.98,10.0,NW,12.7,-,N/A,,Overcast,320,2013-10-16 14:55:00
10:15 AM,44.6,41.0,87,29.99,10.0,NW,12.7,-,N/A,,Overcast,310,2013-10-16 15:15:00
10:35 AM,44.6,41.0,87,29.99,10.0,NW,11.5,-,N/A,,Overcast,320,2013-10-16 15:35:00
10:55 AM,44.6,41.0,87,29.99,10.0,NW,11.5,-,N/A,,Overcast,320,2013-10-16 15:55:00
11:15 AM,46.4,41.0,81,29.99,10.0,NW,12.7,-,N/A,,Overcast,320,2013-10-16 16:15:00
11:35 AM,46.4,41.0,81,29.99,10.0,NW,10.4,16.1,N/A,,Overcast,310,2013-10-16 16:35:00
11:55 AM,46.4,41.0,81,29.99,10.0,NW,11.5,-,N/A,,Overcast,320,2013-10-16 16:55:00
12:15 PM,46.4,41.0,81,30.00,10.0,NW,10.4,-,N/A,,Overcast,320,2013-10-16 17:15:00
12:35 PM,46.4,41.0,81,29.99,10.0,NW,10.4,-,N/A,,Overcast,310,2013-10-16 17:35:00
12:55 PM,46.4,39.2,76,29.99,10.0,NW,9.2,-,N/A,,Overcast,310,2013-10-16 17:55:00
1:15 PM,46.4,37.4,71,29.98,10.0,NW,12.7,-,N/A,,Overcast,310,2013-10-16 18:15:00
1:35 PM,48.2,39.2,71,29.98,10.0,NW,8.1,-,N/A,,Overcast,320,2013-10-16 18:35:00
1:55 PM,48.2,37.4,66,29.97,10.0,NW,10.4,-,N/A,,Overcast,310,2013-10-16 18:55:00
2:15 PM,48.2,37.4,66,29.97,10.0,NW,9.2,16.1,N/A,,Overcast,310,2013-10-16 19:15:00
2:35 PM,48.2,37.4,66,29.97,10.0,NW,11.5,-,N/A,,Overcast,310,2013-10-16 19:35:00
2:55 PM,48.2,37.4,66,29.97,10.0,WNW,9.2,-,N/A,,Overcast,290,2013-10-16 19:55:00
3:15 PM,48.2,37.4,66,29.97,10.0,WNW,10.4,-,N/A,,Overcast,300,2013-10-16 20:15:00
3:35 PM,48.2,37.4,66,29.96,10.0,NNW,9.2,-,N/A,,Overcast,330,2013-10-16 20:35:00
3:55 PM,48.2,37.4,66,29.96,10.0,NW,9.2,-,N/A,,Overcast,310,2013-10-16 20:55:00
4:15 PM,50.0,37.4,62,29.95,10.0,NW,8.1,-,N/A,,Mostly Cloudy,310,2013-10-16 21:15:00
4:35 PM,50.0,37.4,62,29.95,10.0,North,3.5,-,N/A,,Partly Cloudy,350,2013-10-16 21:35:00
4:55 PM,50.0,37.4,62,29.94,10.0,North,3.5,-,N/A,,Clear,350,2013-10-16 21:55:00
5:15 PM,50.0,37.4,62,29.93,10.0,NW,4.6,-,N/A,,Clear,320,2013-10-16 22:15:00
5:35 PM,50.0,37.4,62,29.93,10.0,Calm,Calm,-,N/A,,Clear,0,2013-10-16 22:35:00
5:55 PM,50.0,37.4,62,29.93,10.0,Calm,Calm,-,N/A,,Clear,0,2013-10-16 22:55:00
6:15 PM,48.2,37.4,66,29.93,10.0,Calm,Calm,-,N/A,,Clear,0,2013-10-16 23:15:00
6:35 PM,46.4,37.4,71,29.93,10.0,SSE,3.5,-,N/A,,Clear,150,2013-10-16 23:35:00
6:55 PM,46.4,39.2,76,29.93,10.0,SSE,4.6,-,N/A,,Clear,150,2013-10-16 23:55:00
7:15 PM,41.0,39.2,93,29.93,10.0,South,3.5,-,N/A,,Clear,170,2013-10-17 00:15:00
7:35 PM,41.0,37.4,87,29.94,10.0,SSE,4.6,-,N/A,,Clear,160,2013-10-17 00:35:00
7:55 PM,39.2,37.4,93,29.94,10.0,South,4.6,-,N/A,,Clear,170,2013-10-17 00:55:00
8:15 PM,39.2,37.4,93,29.93,10.0,SSE,3.5,-,N/A,,Clear,160,2013-10-17 01:15:00
8:35 PM,37.4,35.6,93,29.93,10.0,South,4.6,-,N/A,,Clear,170,2013-10-17 01:35:00
8:55 PM,37.4,37.4,100,29.94,10.0,South,5.8,-,N/A,,Clear,190,2013-10-17 01:55:00
9:15 PM,37.4,35.6,93,29.94,10.0,South,5.8,-,N/A,,Clear,180,2013-10-17 02:15:00
9:35 PM,39.2,37.4,93,29.94,10.0,South,9.2,-,N/A,,Clear,180,2013-10-17 02:35:00
9:55 PM,39.2,37.4,93,29.94,10.0,South,6.9,-,N/A,,Clear,180,2013-10-17 02:55:00
10:15 PM,39.2,37.4,93,29.94,10.0,South,8.1,-,N/A,,Scattered Clouds,180,2013-10-17 03:15:00
10:35 PM,39.2,37.4,93,29.94,10.0,South,6.9,-,N/A,,Overcast,190,2013-10-17 03:35:00
10:55 PM,39.2,37.4,93,29.94,10.0,South,5.8,-,N/A,,Overcast,180,2013-10-17 03:55:00
11:15 PM,39.2,37.4,93,29.93,10.0,South,4.6,-,N/A,,Overcast,180,2013-10-17 04:15:00
11:35 PM,37.4,35.6,93,29.93,10.0,Calm,Calm,-,N/A,,Scattered Clouds,0,2013-10-17 04:35:00
11:55 PM,37.4,35.6,93,29.92,10.0,SSW,6.9,-,N/A,,Partly Cloudy,200,2013-10-17 04:55:00